Weather History for Khon Kaen, Thailand

Change the Weather History Date:

Sunday, September 23, 2012

  Actual Average Record
Temperature  
Mean Temperature 83 °F -  
Max Temperature 89 °F 89 °F - ()
Min Temperature 77 °F 73 °F - ()
Cooling Degree Days 18    
Growing Degree Days 33 (Base 50)    
Moisture  
Dew Point 78 °F    
Average Humidity 90    
Maximum Humidity 100    
Minimum Humidity 61    
Precipitation  
Precipitation 0.00 in 0.18 in - ()
Sea Level Pressure  
Sea Level Pressure 29.72 in    
Wind  
Wind Speed 1 mph ()    
Max Wind Speed 6 mph    
Max Gust Speed 17 mph    
Visibility 5.7 miles    
Events Rain , Thunderstorm    
T = Trace of Precipitation, MM = Missing Value Source: Averaged Metar Reports

Daily Weather History Graph

Daily Weather History Graph

Search for Another Location

Airport:

Trip Planner

Search our weather history database for the weather conditions in past years. The results will help you decide how hot, cold, wet, or windy it might be!

Date:

Astronomy

Sep. 23, 2012 Rise Set
Actual Time 5:57 AM ICT 6:04 PM ICT
Civil Twilight 5:36 AM ICT 6:25 PM ICT
Nautical Twilight 5:11 AM ICT 6:50 PM ICT
Astronomical Twilight 4:46 AM ICT 7:15 PM ICT
Moon 12:50 PM ICT (9/23) No Moon Set
Length of Visible Light 12h 49m
Length of Day
12h 06m
First Quarter, 54% of the Moon is Illuminated
Sep 23
First Quarter
Sep 30
Full
Oct 8
Last Quarter
Oct 15
New
Oct 22
First Quarter

Hourly Weather History & Observations

Time (ICT) Temp. Heat Index Dew Point Humidity Pressure Visibility Wind Dir Wind Speed Gust Speed Precip Events Conditions
1:00 AM 80 °F - 76 °F 85% 29.72 in 6 mi Calm Calm - -   Clear
5:00 AM 78.8 °F - 78.8 °F 100% 29.71 in 4.3 mi Calm Calm - N/A   Unknown
6:00 AM 78.8 °F - 78.8 °F 100% 29.74 in 4.3 mi Calm Calm - N/A   Mostly Cloudy
7:00 AM 80 °F - 78 °F 90% 29.73 in 4 mi Calm Calm - -   Mist
7:00 AM 78.8 °F - 78.8 °F 100% 29.74 in 4.3 mi Variable 2.3 mph - N/A   Mostly Cloudy
8:00 AM 82.4 °F 94.0 °F 80.6 °F 94% 29.77 in 5.0 mi Variable 2.3 mph - N/A   Mostly Cloudy
9:00 AM 84.2 °F 98.3 °F 80.6 °F 89% 29.77 in 6.2 mi Calm Calm - N/A   Mostly Cloudy
10:00 AM 86.0 °F 101.9 °F 80.6 °F 84% 29.77 in 6.2 mi Variable 3.5 mph - N/A   Mostly Cloudy
11:00 AM 87.8 °F 104.9 °F 80.6 °F 79% 29.77 in 6.2 mi SW 3.5 mph - N/A   Mostly Cloudy
12:00 PM 84.2 °F 98.3 °F 80.6 °F 89% 29.74 in 6.2 mi SSE 5.8 mph - N/A   Mostly Cloudy
1:00 PM 89 °F - 77 °F 61% 29.70 in 6 mi SW 3.5 mph - -   Partly Cloudy
1:00 PM 89.6 °F 104.7 °F 78.8 °F 70% 29.71 in 6.2 mi Variable 2.3 mph - N/A   Mostly Cloudy
2:00 PM 86.0 °F 95.1 °F 75.2 °F 70% 29.71 in 6.2 mi Variable 3.5 mph 17.3 mph N/A   Mostly Cloudy
3:00 PM 77.0 °F - 77.0 °F 100% 29.71 in 5.0 mi South 4.6 mph - N/A Rain , Thunderstorm Thunderstorms and Rain
4:00 PM 77.0 °F - 77.0 °F 100% 29.65 in 6.2 mi Variable 2.3 mph - N/A   Overcast
5:00 PM 77.0 °F - 77.0 °F 100% 29.65 in 6.2 mi Variable 2.3 mph - N/A   Overcast
6:00 PM 78.8 °F - 77.0 °F 94% 29.68 in 6.2 mi WSW 3.5 mph - N/A   Overcast
7:00 PM 78 °F - 76 °F 91% 29.69 in 6 mi Calm Calm - -   Scattered Clouds
7:00 PM 77.0 °F - 77.0 °F 100% 29.71 in 6.2 mi Calm Calm - N/A   Mostly Cloudy
8:00 PM 77.0 °F - 75.2 °F 94% 29.71 in 6.2 mi Variable 1.2 mph - N/A   Mostly Cloudy